This is the latest recevied weather packets stored in our database for station/object N8XHB. If no packets are shown the sender has not sent any weather packets the latest 10 day(s).
| Time | Temp. | Humidity | Pressure | Rain* | Wind** | Luminosity | Snow |
|---|---|---|---|---|---|---|---|
| 1777943895 | 21.11° C | 52% | 997.7 hPa | 0 mm | - | 0 W/m² | - |
| 1777943592 | 21.11° C | 51% | 997.3 hPa | 0 mm | - | 0 W/m² | - |
| 1777943288 | 21.11° C | 49% | 997.8 hPa | 0 mm | - | 0 W/m² | - |
| 1777942984 | 21.67° C | 48% | 997.6 hPa | 0 mm | - | 0 W/m² | - |
| 1777942681 | 21.67° C | 46% | 997.5 hPa | 0 mm | - | 1 W/m² | - |
| 1777942378 | 21.67° C | 44% | 997.6 hPa | 0 mm | - | 1 W/m² | - |
| 1777942075 | 22.22° C | 42% | 997.5 hPa | 0 mm | - | 2 W/m² | - |
| 1777941771 | 22.22° C | 41% | 997.3 hPa | 0 mm | - | 3 W/m² | - |
| 1777941469 | 22.22° C | 40% | 997.5 hPa | 0 mm | - | 5 W/m² | - |
| 1777941166 | 22.22° C | 37% | 997.3 hPa | 0 mm | - | 7 W/m² | - |
| 1777940862 | 22.22° C | 36% | 997.2 hPa | 0 mm | - | 10 W/m² | - |
| 1777940560 | 22.22° C | 35% | 997.2 hPa | 0 mm | - | 13 W/m² | - |
| 1777940257 | 22.78° C | 35% | 997.1 hPa | 0 mm | - | 16 W/m² | - |
| 1777939955 | 22.78° C | 34% | 996.9 hPa | 0 mm | - | 19 W/m² | - |
| 1777939651 | 22.78° C | 34% | 997.1 hPa | 0 mm | - | 21 W/m² | - |
| 1777939349 | 22.78° C | 34% | 996.9 hPa | 0 mm | - | 23 W/m² | - |
| 1777939045 | 22.78° C | 34% | 997.2 hPa | 0 mm | - | 26 W/m² | - |
| 1777938741 | 22.78° C | 34% | 997.2 hPa | 0 mm | - | 29 W/m² | - |
| 1777938439 | 23.33° C | 33% | 997.1 hPa | 0 mm | - | 35 W/m² | - |
| 1777938136 | 23.33° C | 33% | 997.3 hPa | 0 mm | - | 41 W/m² | - |
| 1777937832 | 23.33° C | 33% | 997.2 hPa | 0 mm | - | 44 W/m² | - |
| 1777937528 | 23.33° C | 33% | 997.3 hPa | 0 mm | - | 49 W/m² | - |
| 1777937226 | 23.33° C | 33% | 997.6 hPa | 0 mm | - | 55 W/m² | - |
| 1777936923 | 23.33° C | 33% | 997.7 hPa | 0 mm | - | 71 W/m² | - |
| 1777936619 | 23.33° C | 33% | 997.6 hPa | 0 mm | - | 78 W/m² | - |
* Rain latest hour (hover to see other rain measurements)
** Current wind speed in m/s (hover to see current wind gust speed)